EW6361 Weather Reports


time (UTC)temp
C
wind
direction
speed
KPH
gust
KPH
rain 1hr
cm
rain 24hr
cm
rain mn
cm
humidity
%
barometer
mb
20260906011505 30 252 4.8 0.0 0.00 0.00 0.00 100 1007.1
20260906010002 30 254 1.6 0.0 0.00 0.00 0.00 100 1007.0
20260906004608 30 255 4.8 0.0 0.00 0.00 0.00 100 1007.1
20260906003041 30 247 3.2 0.0 0.00 0.00 0.00 100 1006.8
20260906001537 30 253 3.2 0.0 0.00 0.00 0.00 100 1007.0
20260906000035 30 246 3.2 0.0 0.00 0.00 0.00 100 1006.9
20260905234529 30 233 3.2 0.0 0.00 0.00 0.00 100 1006.7
20260905233025 30 241 4.8 0.0 0.00 0.00 0.00 100 1006.8
20260905231521 31 261 4.8 0.0 0.00 0.00 0.00 100 1006.8
20260905230016 31 215 4.8 0.0 0.00 0.00 0.00 100 1007.1
20260905224512 31 241 4.8 0.0 0.00 0.00 0.00 100 1006.9
20260905223057 31 205 6.4 0.0 0.00 0.00 0.00 100 1007.1
20260905221552 32 215 4.8 0.0 0.00 0.00 0.00 100 1007.2
20260905220047 32 246 4.8 0.0 0.00 0.00 0.00 100 1007.2
20260905214545 32 227 4.8 0.0 0.00 0.00 0.00 100 1007.5
20260905213039 32 257 4.8 0.0 0.00 0.00 0.00 100 1007.4
20260905211535 32 275 4.8 0.0 0.00 0.00 0.00 100 1007.4
20260905210031 32 217 4.8 0.0 0.00 0.00 0.00 100 1007.3
20260905204526 32 239 6.4 0.0 0.00 0.00 0.00 100 1007.4
20260905203004 32 239 6.4 0.0 0.00 0.00 0.00 100 1007.3
20260905201600 32 250 4.8 0.0 0.00 0.00 0.00 100 1007.7
20260905200052 32 236 6.4 0.0 0.00 0.00 0.00 100 1007.8
20260905194541 32 219 4.8 0.0 0.00 0.00 0.00 100 1008.2
20260905193040 32 269 6.4 0.0 0.00 0.00 0.00 100 1008.3
20260905191537 32 246 6.4 0.0 0.00 0.00 0.00 100 1008.4
20260905190044 32 278 4.8 0.0 0.00 0.00 0.00 100 1008.4
20260905184524 32 186 4.8 0.0 0.00 0.00 0.00 100 1008.8
20260905183019 32 250 4.8 0.0 0.00 0.00 0.00 100 1009.2
20260905181518 32 272 6.4 0.0 0.00 0.00 0.00 100 1009.0
20260905180053 32 252 6.4 0.0 0.00 0.00 0.00 100 1009.3
20260905174550 32 197 6.4 0.0 0.00 0.00 0.00 100 1009.3
20260905173029 32 207 4.8 0.0 0.00 0.00 0.00 100 1009.3
20260905171522 32 208 4.8 0.0 0.00 0.00 0.00 100 1009.4
20260905170006 31 231 3.2 0.0 0.00 0.00 0.00 100 1009.8
20260905164502 30 312 4.8 0.0 0.00 0.00 0.00 100 1009.7
20260905163058 30 304 6.4 0.0 0.00 0.00 0.00 100 1009.8
20260905161553 32 265 3.2 0.0 0.00 0.00 0.00 100 1009.8
20260905160051 32 229 3.2 0.0 0.00 0.00 0.00 100 1009.8
20260905154547 32 188 1.6 0.0 0.00 0.00 0.00 100 1009.5
20260905153053 31 225 3.2 0.0 0.00 0.00 0.00 100 1009.5
20260905151540 31 219 3.2 0.0 0.00 0.00 0.00 100 1009.5
20260905150021 30 9 0.0 0.0 0.00 0.00 0.00 100 1009.6
20260905144516 30 5 0.0 0.0 0.00 0.00 0.00 100 1009.8
20260905143020 30 5 0.0 0.0 0.00 0.00 0.00 100 1009.6
20260905141508 30 5 0.0 0.0 0.00 0.00 0.00 100 1009.6
20260905140002 30 9 0.0 0.0 0.00 0.00 0.00 100 1009.3
20260905134558 30 9 0.0 0.0 0.00 0.00 0.00 100 1009.3
20260905133057 29 9 1.6 0.0 0.00 0.00 0.00 100 1009.3
20260905131604 28 9 1.6 0.0 0.00 0.00 0.00 100 1009.3
20260905130037 28 9 3.2 0.0 0.00 0.00 0.00 100 1009.3
20260905124524 28 360 4.8 0.0 0.00 0.00 0.00 100 1009.2
20260905123008 28 15 4.8 0.0 0.00 0.00 0.00 100 1009.0
20260905121504 -17 0.0 0.0 0.00 0.00 0.00 1008.8
20260905120111 -17 0.0 0.0 0.00 0.00 0.00 1008.8
20260905114555 -17 0.0 0.0 0.00 0.00 0.00 1008.8
20260905113051 27 22 3.2 0.0 0.00 0.00 0.00 100 1008.8
20260905111605 28 20 3.2 0.0 0.00 0.00 0.00 100 1008.5
20260905110044 28 5 4.8 0.0 0.00 0.00 0.00 100 1008.4
20260905104538 28 332 3.2 0.0 0.00 0.00 0.00 100 1008.4
20260905103017 28 331 3.2 0.0 0.00 0.00 0.00 100 1008.3
20260905101512 27 223 0.0 0.0 0.00 0.00 0.00 100 1008.3
20260905100108 27 223 0.0 0.0 0.00 0.00 0.00 100 1008.3
20260905094552 27 223 0.0 0.0 0.00 0.00 0.00 100 1008.3
20260905093048 27 221 0.0 0.0 0.00 0.00 0.00 100 1008.3
20260905091543 27 220 0.0 0.0 0.00 0.00 0.00 100 1008.3
20260905090039 27 220 0.0 0.0 0.00 0.00 0.00 100 1008.3
20260905084534 28 220 0.0 0.0 0.00 0.00 0.00 100 1008.2
20260905083030 28 220 0.0 0.0 0.00 0.00 0.00 100 1008.1
20260905081526 28 221 3.2 0.0 0.00 0.00 0.00 100 1008.1
20260905080021 28 205 0.0 0.0 0.00 0.00 0.00 100 1008.1
20260905074508 28 201 1.6 0.0 0.00 0.00 0.00 100 1008.3
20260905073106 28 201 1.6 0.0 0.00 0.00 0.00 100 1008.2
20260905073002 28 201 1.6 0.0 0.00 0.00 0.00 100 1008.2
20260905071556 28 199 0.0 0.0 0.00 0.00 0.00 100 1007.9
20260905070052 28 205 1.6 0.0 0.00 0.00 0.00 100 1007.9
20260905064548 28 198 1.6 0.0 0.00 0.00 0.00 100 1007.8
20260905063043 28 199 1.6 0.0 0.00 0.00 0.00 100 1008.1
20260905061539 28 196 1.6 0.0 0.00 0.00 0.00 100 1008.2
20260905060037 28 196 1.6 0.0 0.00 0.00 0.00 100 1008.1
20260905054535 28 194 1.6 0.0 0.00 0.00 0.00 100 1008.3
20260905053008 28 196 0.0 0.0 0.00 0.00 0.00 100 1008.5
20260905051554 28 196 0.0 0.0 0.00 0.00 0.00 100 1008.5
20260905050049 28 196 1.6 0.0 0.00 0.00 0.00 100 1008.8
20260905044547 28 168 1.6 0.0 0.00 0.00 0.00 100 1008.8
20260905043040 28 161 1.6 0.0 0.00 0.00 0.00 100 1008.8
20260905041542 28 159 0.0 0.0 0.00 0.00 0.00 100 1008.9
20260905040031 28 159 0.0 0.0 0.00 0.00 0.00 100 1009.0
20260905034527 28 159 0.0 0.0 0.00 0.00 0.00 100 1009.2
20260905033026 28 159 1.6 0.0 0.00 0.00 0.00 100 1009.3
20260905031507 28 166 0.0 0.0 0.00 0.00 0.00 100 1009.3
20260905030002 28 166 0.0 0.0 0.00 0.00 0.00 100 1009.4
20260905024618 28 167 0.0 0.0 0.00 0.00 0.00 100 1009.6
20260905023102 28 167 0.0 0.0 0.00 0.00 0.00 100 1009.4
20260905021549 28 167 1.6 0.0 0.00 0.00 0.00 100 1009.3
20260905020044 28 168 0.0 0.0 0.00 0.00 0.00 100 1009.2
20260905014540 28 168 0.0 0.0 0.00 0.00 0.00 100 1009.0
20260905013036 28 168 0.0 0.0 0.00 0.00 0.00 100 1008.8